Location: Belfast
(54.5830°N, 5.9330°W)
Time: 16:11:16
(UTC+01:00)

Coronas F rocket - Visible Passes

Search period start: 03 September 2015 00:00
Search period end: 13 September 2015 00:00
Orbit: 359 x 372 km, 82.5° (Epoch: 02 September)

Date Brightness Start Highest point End Pass type
(mag) Time Alt. Az. Time Alt. Az. Time Alt. Az.
03 Sep 3.2 04:56:07 10° N 04:58:54 36° ENE 05:01:40 10° SE visible
04 Sep 5.2 03:56:20 10° NE 03:56:50 10° ENE 03:57:27 10° ENE visible
04 Sep 1.4 05:27:00 10° NNW 05:29:57 67° W 05:32:52 10° S visible
05 Sep 3.9 04:25:42 10° N 04:28:13 25° ENE 04:30:43 10° SE visible
05 Sep 2.8 05:58:26 10° NW 06:00:47 21° W 06:03:06 10° SW visible
06 Sep 1.6 04:56:21 10° N 04:59:19 77° E 05:02:14 10° SSE visible
07 Sep 4.4 03:55:18 10° NNE 03:57:24 18° ENE 03:59:32 10° ESE visible
07 Sep 2.3 05:27:29 10° NNW 05:30:10 31° W 05:32:48 10° SSW visible
08 Sep 2.4 04:25:39 10° N 04:28:33 48° ENE 04:30:33 17° SE visible
08 Sep 3.6 05:59:39 10° WNW 06:00:50 12° W 06:01:55 10° WSW visible
09 Sep 4.7 03:25:03 10° NNE 03:26:29 13° ENE 03:28:00 10° E visible
09 Sep 1.7 04:56:35 10° NNW 04:59:27 47° W 05:00:12 36° SW visible
10 Sep 3.1 03:54:58 10° N 03:57:41 32° ENE 03:58:07 30° E visible
10 Sep 3.2 05:28:07 10° NW 05:29:58 17° W 05:29:58 17° W visible
11 Sep 2.0 04:25:40 10° NNW 04:28:00 51° NNW 04:28:00 51° NNW visible
12 Sep 4.1 03:24:19 10° NNE 03:26:06 21° NE 03:26:06 21° NE visible
12 Sep 3.5 04:56:52 10° NW 04:57:58 17° NW 04:57:58 17° NW visible
